Time,TemperatureF,DewpointF,PressureIn,WindDirection,WindDirectionDegrees,WindSpeedMPH,WindSpeedGustMPH,Humidity,HourlyPrecipIn,Conditions,Clouds,dailyrainin,SoftwareType,DateUTC
2013-12-15 00:14:00,19.4,18.0,29.82,West,259,6.0,7.0,92,0.00,,,0.00,weatherlink.com 1.10,2013-12-15 05:14:00,
2013-12-15 00:29:00,19.8,18.0,29.83,WSW,252,5.0,8.0,92,0.00,,,0.00,weatherlink.com 1.10,2013-12-15 05:29:00,
2013-12-15 00:44:00,20.1,18.0,29.82,West,267,3.0,8.0,92,0.00,,,0.00,weatherlink.com 1.10,2013-12-15 05:44:00,
2013-12-15 00:59:00,19.7,18.0,29.82,West,264,4.0,8.0,91,0.00,,,0.00,weatherlink.com 1.10,2013-12-15 05:59:00,
2013-12-15 01:14:00,19.1,17.0,29.83,West,274,2.0,8.0,91,0.00,,,0.00,weatherlink.com 1.10,2013-12-15 06:14:00,
2013-12-15 01:30:00,19.1,17.0,29.83,WSW,245,3.0,5.0,92,0.00,,,0.00,weatherlink.com 1.10,2013-12-15 06:30:00,
2013-12-15 01:45:00,19.1,17.0,29.83,WSW,242,4.0,7.0,92,0.00,,,0.00,weatherlink.com 1.10,2013-12-15 06:45:00,
2013-12-15 02:00:00,19.6,18.0,29.84,West,261,6.0,9.0,92,0.00,,,0.00,weatherlink.com 1.10,2013-12-15 07:00:00,
2013-12-15 02:15:00,20.1,18.0,29.84,WSW,244,8.0,10.0,92,0.00,,,0.00,weatherlink.com 1.10,2013-12-15 07:15:00,
2013-12-15 02:30:00,20.1,18.0,29.85,West,271,2.0,11.0,92,0.00,,,0.00,weatherlink.com 1.10,2013-12-15 07:30:00,
2013-12-15 02:45:00,19.7,18.0,29.85,WSW,240,5.0,11.0,92,0.00,,,0.00,weatherlink.com 1.10,2013-12-15 07:45:00,
2013-12-15 03:00:00,19.4,18.0,29.85,WSW,238,9.0,12.0,92,0.00,,,0.00,weatherlink.com 1.10,2013-12-15 08:00:00,
2013-12-15 03:15:00,19.3,17.0,29.85,WSW,258,8.0,13.0,92,0.00,,,0.00,weatherlink.com 1.10,2013-12-15 08:15:00,
2013-12-15 03:30:00,19.4,18.0,29.86,WSW,240,10.0,11.0,92,0.00,,,0.00,weatherlink.com 1.10,2013-12-15 08:30:00,
2013-12-15 03:45:00,19.5,18.0,29.86,West,269,8.0,11.0,92,0.00,,,0.00,weatherlink.com 1.10,2013-12-15 08:45:00,
2013-12-15 04:00:00,19.7,18.0,29.86,SW,217,7.0,10.0,92,0.00,,,0.00,weatherlink.com 1.10,2013-12-15 09:00:00,
2013-12-15 04:15:00,19.8,18.0,29.86,WSW,241,8.0,13.0,92,0.00,,,0.00,weatherlink.com 1.10,2013-12-15 09:15:00,
2013-12-15 04:30:00,19.8,18.0,29.86,SW,214,5.0,11.0,92,0.00,,,0.00,weatherlink.com 1.10,2013-12-15 09:30:00,
2013-12-15 04:45:00,19.9,18.0,29.86,SW,220,5.0,9.0,92,0.00,,,0.00,weatherlink.com 1.10,2013-12-15 09:45:00,
2013-12-15 05:00:00,19.9,18.0,29.86,SW,236,4.0,12.0,92,0.00,,,0.00,weatherlink.com 1.10,2013-12-15 10:00:00,
2013-12-15 05:15:00,20.0,18.0,29.87,SW,221,9.0,10.0,92,0.00,,,0.00,weatherlink.com 1.10,2013-12-15 10:15:00,
2013-12-15 05:30:00,20.0,18.0,29.87,SW,221,3.0,10.0,92,0.00,,,0.00,weatherlink.com 1.10,2013-12-15 10:30:00,
2013-12-15 05:45:00,20.0,18.0,29.87,WSW,244,10.0,12.0,92,0.00,,,0.00,weatherlink.com 1.10,2013-12-15 10:45:00,
2013-12-15 06:00:00,20.0,18.0,29.87,SW,219,3.0,9.0,92,0.00,,,0.00,weatherlink.com 1.10,2013-12-15 11:00:00,
2013-12-15 06:15:00,19.9,18.0,29.86,West,266,1.0,2.0,92,0.00,,,0.00,weatherlink.com 1.10,2013-12-15 11:15:00,
2013-12-15 06:30:00,20.0,18.0,29.86,SSW,208,1.0,3.0,92,0.00,,,0.00,weatherlink.com 1.10,2013-12-15 11:30:00,
2013-12-15 06:45:00,20.1,18.0,29.87,SSW,194,0.0,3.0,92,0.00,,,0.00,weatherlink.com 1.10,2013-12-15 11:45:00,
2013-12-15 07:00:00,20.1,18.0,29.87,SW,215,0.0,5.0,92,0.00,,,0.00,weatherlink.com 1.10,2013-12-15 12:00:00,
2013-12-15 07:15:00,20.2,18.0,29.87,SSE,162,0.0,6.0,92,0.00,,,0.00,weatherlink.com 1.10,2013-12-15 12:15:00,
2013-12-15 07:30:00,20.2,18.0,29.88,SSE,165,1.0,6.0,92,0.00,,,0.00,weatherlink.com 1.10,2013-12-15 12:30:00,
2013-12-15 07:45:00,20.4,19.0,29.87,SSW,207,4.0,8.0,92,0.00,,,0.00,weatherlink.com 1.10,2013-12-15 12:45:00,
2013-12-15 08:00:00,20.6,19.0,29.87,SE,144,1.0,6.0,92,0.00,,,0.00,weatherlink.com 1.10,2013-12-15 13:00:00,
2013-12-15 08:15:00,20.7,19.0,29.86,SSW,206,4.0,8.0,92,0.00,,,0.00,weatherlink.com 1.10,2013-12-15 13:15:00,
2013-12-15 08:30:00,20.9,19.0,29.86,NNW,345,2.0,8.0,91,0.00,,,0.00,weatherlink.com 1.10,2013-12-15 13:30:00,
2013-12-15 08:45:00,21.1,19.0,29.86,SE,140,2.0,6.0,91,0.00,,,0.00,weatherlink.com 1.10,2013-12-15 13:45:00,
2013-12-15 09:00:00,21.4,19.0,29.87,South,181,1.0,10.0,91,0.00,,,0.00,weatherlink.com 1.10,2013-12-15 14:00:00,
2013-12-15 09:15:00,21.7,20.0,29.87,SSE,159,1.0,7.0,91,0.00,,,0.00,weatherlink.com 1.10,2013-12-15 14:15:00,
2013-12-15 09:30:00,22.0,20.0,29.86,SSW,209,4.0,10.0,91,0.00,,,0.00,weatherlink.com 1.10,2013-12-15 14:30:00,
2013-12-15 09:45:00,22.3,20.0,29.87,East,101,2.0,8.0,91,0.00,,,0.00,weatherlink.com 1.10,2013-12-15 14:45:00,
2013-12-15 10:00:00,22.9,21.0,29.86,SW,222,3.0,11.0,91,0.00,,,0.00,weatherlink.com 1.10,2013-12-15 15:00:00,
2013-12-15 10:15:00,23.5,21.0,29.86,SSE,159,2.0,10.0,91,0.00,,,0.00,weatherlink.com 1.10,2013-12-15 15:15:00,
2013-12-15 10:31:00,24.1,22.0,29.86,ESE,116,1.0,14.0,90,0.00,,,0.00,weatherlink.com 1.10,2013-12-15 15:31:00,
2013-12-15 10:46:00,25.0,22.0,29.85,South,186,7.0,11.0,89,0.00,,,0.00,weatherlink.com 1.10,2013-12-15 15:46:00,
2013-12-15 11:01:00,25.1,22.0,29.85,SE,130,4.0,10.0,88,0.00,,,0.00,weatherlink.com 1.10,2013-12-15 16:01:00,
2013-12-15 11:16:00,25.1,22.0,29.85,South,172,8.0,15.0,88,0.00,,,0.00,weatherlink.com 1.10,2013-12-15 16:16:00,
2013-12-15 11:31:00,24.2,21.0,29.85,SSW,196,5.0,19.0,87,0.00,,,0.00,weatherlink.com 1.10,2013-12-15 16:31:00,
2013-12-15 11:46:00,23.6,21.0,29.85,NW,306,2.0,16.0,88,0.00,,,0.00,weatherlink.com 1.10,2013-12-15 16:46:00,
2013-12-15 12:01:00,23.5,20.0,29.84,SSE,150,6.0,13.0,87,0.00,,,0.00,weatherlink.com 1.10,2013-12-15 17:01:00,
2013-12-15 12:16:00,23.4,20.0,29.84,SW,231,5.0,18.0,86,0.00,,,0.00,weatherlink.com 1.10,2013-12-15 17:16:00,
2013-12-15 12:31:00,23.4,20.0,29.84,South,170,8.0,17.0,85,0.00,,,0.00,weatherlink.com 1.10,2013-12-15 17:31:00,
2013-12-15 12:46:00,22.9,19.0,29.84,SSE,165,9.0,18.0,85,0.00,,,0.00,weatherlink.com 1.10,2013-12-15 17:46:00,
2013-12-15 13:01:00,22.4,19.0,29.83,SW,234,6.0,18.0,86,0.00,,,0.00,weatherlink.com 1.10,2013-12-15 18:01:00,
2013-12-15 13:16:00,22.5,19.0,29.83,WNW,299,3.0,16.0,85,0.00,,,0.00,weatherlink.com 1.10,2013-12-15 18:16:00,
2013-12-15 13:31:00,22.1,18.0,29.84,SW,220,8.0,15.0,85,0.00,,,0.00,weatherlink.com 1.10,2013-12-15 18:31:00,
2013-12-15 13:46:00,21.9,18.0,29.84,SW,222,10.0,22.0,85,0.00,,,0.00,weatherlink.com 1.10,2013-12-15 18:46:00,
2013-12-15 14:01:00,21.9,18.0,29.84,SSW,208,11.0,14.0,83,0.00,,,0.00,weatherlink.com 1.10,2013-12-15 19:01:00,
2013-12-15 14:16:00,22.0,18.0,29.84,WSW,248,2.0,14.0,83,0.00,,,0.00,weatherlink.com 1.10,2013-12-15 19:16:00,
2013-12-15 14:31:00,21.6,18.0,29.85,WSW,238,5.0,13.0,84,0.00,,,0.00,weatherlink.com 1.10,2013-12-15 19:31:00,
2013-12-15 14:46:00,21.4,18.0,29.86,WSW,257,10.0,15.0,86,0.00,,,0.00,weatherlink.com 1.10,2013-12-15 19:46:00,
2013-12-15 15:01:00,21.7,17.0,29.87,SW,225,10.0,19.0,83,0.00,,,0.00,weatherlink.com 1.10,2013-12-15 20:01:00,
2013-12-15 15:16:00,22.2,17.0,29.87,WSW,252,13.0,26.0,79,0.00,,,0.00,weatherlink.com 1.10,2013-12-15 20:16:00,
2013-12-15 15:31:00,22.0,16.0,29.87,WSW,241,13.0,22.0,79,0.00,,,0.00,weatherlink.com 1.10,2013-12-15 20:31:00,
2013-12-15 15:46:00,21.8,17.0,29.88,SW,223,7.0,19.0,80,0.00,,,0.00,weatherlink.com 1.10,2013-12-15 20:46:00,
2013-12-15 16:01:00,21.7,16.0,29.89,SW,233,13.0,25.0,80,0.00,,,0.00,weatherlink.com 1.10,2013-12-15 21:01:00,
2013-12-15 16:16:00,21.5,16.0,29.90,SSW,193,9.0,24.0,80,0.00,,,0.00,weatherlink.com 1.10,2013-12-15 21:16:00,
2013-12-15 16:31:00,21.3,15.0,29.90,SSW,211,14.0,20.0,77,0.00,,,0.00,weatherlink.com 1.10,2013-12-15 21:31:00,
2013-12-15 16:46:00,20.8,16.0,29.91,SW,232,16.0,22.0,80,0.00,,,0.00,weatherlink.com 1.10,2013-12-15 21:46:00,
2013-12-15 17:01:00,20.3,15.0,29.92,West,262,16.0,23.0,80,0.00,,,0.00,weatherlink.com 1.10,2013-12-15 22:01:00,
2013-12-15 17:16:00,20.1,15.0,29.93,SW,221,14.0,23.0,80,0.00,,,0.00,weatherlink.com 1.10,2013-12-15 22:16:00,
2013-12-15 17:31:00,19.9,14.0,29.93,SSW,211,12.0,20.0,79,0.00,,,0.00,weatherlink.com 1.10,2013-12-15 22:31:00,
2013-12-15 17:46:00,19.5,14.0,29.94,SSW,207,5.0,19.0,78,0.00,,,0.00,weatherlink.com 1.10,2013-12-15 22:46:00,
2013-12-15 18:01:00,19.3,14.0,29.94,SSW,193,20.0,21.0,80,0.00,,,0.00,weatherlink.com 1.10,2013-12-15 23:01:00,
2013-12-15 18:29:00,18.9,14.0,29.96,WSW,238,14.0,15.0,81,0.00,,,0.00,weatherlink.com 1.10,2013-12-15 23:29:00,
2013-12-15 18:47:00,18.9,13.0,29.96,WSW,237,13.0,16.0,79,0.00,,,0.00,weatherlink.com 1.10,2013-12-15 23:47:00,
2013-12-15 19:02:00,18.6,13.0,29.97,WSW,242,12.0,22.0,79,0.00,,,0.00,weatherlink.com 1.10,2013-12-16 00:02:00,
2013-12-15 19:17:00,18.8,12.0,29.98,WSW,248,11.0,19.0,76,0.00,,,0.00,weatherlink.com 1.10,2013-12-16 00:17:00,
2013-12-15 19:32:00,18.4,12.0,29.99,WSW,243,8.0,17.0,76,0.00,,,0.00,weatherlink.com 1.10,2013-12-16 00:32:00,
2013-12-15 19:47:00,17.9,12.0,29.99,SW,225,11.0,16.0,76,0.00,,,0.00,weatherlink.com 1.10,2013-12-16 00:47:00,
2013-12-15 20:02:00,18.1,10.0,29.99,WSW,252,13.0,23.0,70,0.00,,,0.00,weatherlink.com 1.10,2013-12-16 01:02:00,
2013-12-15 20:17:00,18.3,10.0,30.00,SSW,209,16.0,20.0,69,0.00,,,0.00,weatherlink.com 1.10,2013-12-16 01:17:00,
2013-12-15 20:32:00,18.4,10.0,30.00,SW,221,9.0,22.0,69,0.00,,,0.00,weatherlink.com 1.10,2013-12-16 01:32:00,
2013-12-15 20:47:00,18.3,9.0,30.01,WSW,244,10.0,19.0,68,0.00,,,0.00,weatherlink.com 1.10,2013-12-16 01:47:00,
2013-12-15 21:02:00,18.3,10.0,30.02,SW,214,10.0,17.0,69,0.00,,,0.00,weatherlink.com 1.10,2013-12-16 02:02:00,
2013-12-15 21:20:00,18.2,11.0,30.02,SW,223,6.0,12.0,72,0.00,,,0.00,weatherlink.com 1.10,2013-12-16 02:20:00,
2013-12-15 21:34:00,18.1,11.0,30.02,SW,229,7.0,15.0,75,0.00,,,0.00,weatherlink.com 1.10,2013-12-16 02:34:00,
2013-12-15 21:49:00,17.9,11.0,30.02,WSW,239,6.0,14.0,74,0.00,,,0.00,weatherlink.com 1.10,2013-12-16 02:49:00,
2013-12-15 22:07:00,17.8,11.0,30.03,SW,231,8.0,12.0,74,0.00,,,0.00,weatherlink.com 1.10,2013-12-16 03:07:00,
2013-12-15 22:21:00,17.9,11.0,30.03,South,189,3.0,15.0,75,0.00,,,0.00,weatherlink.com 1.10,2013-12-16 03:21:00,
2013-12-15 22:36:00,16.7,12.0,30.04,SSE,161,2.0,5.0,83,0.00,,,0.00,weatherlink.com 1.10,2013-12-16 03:36:00,
2013-12-15 22:51:00,16.2,13.0,30.04,ESE,115,2.0,6.0,85,0.00,,,0.00,weatherlink.com 1.10,2013-12-16 03:51:00,
2013-12-15 23:06:00,15.9,13.0,30.04,WSW,241,8.0,9.0,86,0.00,,,0.00,weatherlink.com 1.10,2013-12-16 04:06:00,
2013-12-15 23:21:00,15.5,12.0,30.05,SSE,153,1.0,10.0,86,0.00,,,0.00,weatherlink.com 1.10,2013-12-16 04:21:00,
2013-12-15 23:36:00,15.2,12.0,30.05,South,177,4.0,8.0,87,0.00,,,0.00,weatherlink.com 1.10,2013-12-16 04:36:00,
2013-12-15 23:51:00,14.8,12.0,30.05,SSE,165,5.0,8.0,87,0.00,,,0.00,weatherlink.com 1.10,2013-12-16 04:51:00,